[[{"header":{"parameterUnit":"m.s-1","parameterCategory":1,"la1":30.2991,"la2":30.254,"lo1":-89.0895,"lo2":-89.0444,"dx":0.0017,"dy":0.0017,"nx":28,"ny":28,"refTime":"2022-12-14T09:00:00:Z","depth":0,"parameterNumber":2,"parameterNumberName":"U-component_of_WINDS"},"data":[0,0,0,0,0,0,0,0,0,0,0,0,0,0,0,0,0,0,0,0,0,0,0,0,0,0,0,0,0,0,0,0,0,0,0,0,0,0,0,0,0,0,0,0,0,0,0,0,0,0,0,0,0,0,0,0,0,0,-4.0801,-4.0802,0,-4.091,-4.0911,-4.0912,-4.0938,-4.0937,-4.0936,-4.0936,-4.1038,-4.1041,-4.1045,0,0,0,0,0,0,0,0,0,0,0,0,0,-4.0608,-4.0612,-4.0801,-4.0802,-4.0804,-4.0909,-4.0911,-4.0912,-4.0938,-4.0937,-4.0936,-4.0935,-4.1037,-4.1041,-4.1045,0,0,0,0,0,0,0,0,0,0,0,0,0,-4.0702,-4.0613,-4.0801,-4.083,-4.0833,-4.0909,-4.0911,-4.0913,-4.0938,-4.0937,-4.0936,-4.0935,-4.1036,-4.104,-4.1045,-4.1098,0,0,-4.1061,-4.1063,0,0,0,0,0,0,0,0,-4.0696,-4.0709,-4.0824,-4.0828,-4.0832,-4.0909,-4.0881,-4.0975,-4.0938,-4.0898,-4.0936,-4.0934,-4.0995,-4.1004,-4.1026,-4.1103,-4.1107,-4.1061,-4.1065,-4.1067,-4.1068,0,0,0,0,0,0,0,-4.069,-4.0704,-4.0844,-4.0825,-4.083,-4.0834,-4.0847,-4.0898,-4.0951,-4.0901,-4.0904,-4.0916,-4.0997,-4.1021,-4.1029,-4.1109,-4.1061,-4.1066,-4.1069,-4.1071,-4.1234,-4.1235,0,0,0,0,0,0,-4.068,-4.0699,-4.084,-4.0847,-4.0761,-4.0839,-4.0852,-4.0885,-4.0951,-4.096,-4.0917,-4.0917,-4.1013,-4.1023,-4.1032,-4.1098,-4.1067,-4.1071,-4.1074,-4.1232,-4.1234,-4.1235,0,0,0,0,0,0,-4.0675,-4.0692,-4.0836,-4.0774,-4.0792,-4.0843,-4.088,-4.0888,-4.0912,-4.0963,-4.0971,-4.0933,-4.1013,-4.1025,-4.1082,-4.1102,-4.1074,-4.1078,-4.1231,-4.1233,-4.1234,-4.1229,0,0,0,0,0,0,-4.067,-4.069,-4.0712,-4.0774,-4.0796,-4.0886,-4.0881,-4.0891,-4.0922,-4.0923,-4.0979,-4.0987,-4.1013,-4.1074,-4.1087,-4.1108,-4.1082,-4.1229,-4.1232,-4.1234,-4.1228,-4.1231,-4.1233,0,0,0,0,0,-4.0663,-4.0705,-4.0714,-4.073,-4.0825,-4.0887,-4.0899,-4.093,-4.0923,-4.0945,-4.0977,-4.0986,-4.1098,-4.108,-4.1095,-4.1117,-4.1228,-4.1231,-4.1234,-4.1226,-4.123,-4.1233,0,0,0,0,0,0,-4.064,-4.0713,-4.0724,-4.0787,-4.0831,-4.0891,-4.0919,-4.0933,-4.0977,-4.0975,-4.1009,-4.1022,-4.1076,-4.1103,-4.1081,-4.1172,-4.1163,-4.1168,-4.1152,-4.1156,-4.1158,-4.115,-4.1086,0,0,0,0,0,-4.0644,-4.0691,-4.0751,-4.0801,-4.0823,-4.0868,-4.0896,-4.0916,-4.0962,-4.0979,-4.1016,-4.1058,-4.1102,-4.1131,-4.1175,-4.1232,-4.1244,-4.1255,-4.1258,-4.126,-4.1264,-4.1295,-4.1301,-4.1245,-4.1245,-4.1245,0,0,-4.0649,-4.0695,-4.0722,-4.0798,-4.0834,-4.088,-4.0883,-4.0931,-4.0964,-4.0986,-4.1042,-4.1071,-4.1119,-4.1177,-4.1204,-4.12,-4.1282,-4.1264,-4.1265,-4.1268,-4.1299,-4.1304,-4.1309,-4.1247,-4.1246,-4.1246,0,0,-4.0683,-4.0723,-4.0769,-4.0807,-4.0863,-4.0893,-4.0904,-4.0963,-4.0984,-4.1042,-4.1059,-4.1098,-4.1174,-4.1208,-4.1236,-4.1284,-4.1293,-4.1297,-4.131,-4.1341,-4.1345,-4.1349,-4.1365,-4.1371,-4.1302,-4.1302,-4.1302,0,-4.0682,-4.0754,-4.079,-4.0839,-4.0871,-4.0896,-4.0942,-4.0975,-4.1042,-4.1062,-4.1059,-4.1156,-4.119,-4.1256,-4.1268,-4.129,-4.1302,-4.129,-4.1342,-4.1347,-4.1351,-4.1366,-4.1373,-4.1302,-4.1302,-4.1302,-4.1302,0,-4.0749,-4.0799,-4.083,-4.0897,-4.0933,-4.0979,-4.102,-4.1052,-4.1069,-4.1099,-4.1157,-4.12,-4.1253,-4.127,-4.1286,-4.1338,-4.1334,-4.1336,-4.1327,-4.1356,-4.1371,-4.1377,-4.1302,-4.1302,-4.1302,-4.1302,0,0,-4.0769,-4.0859,-4.0869,-4.09,-4.0965,-4.1003,-4.105,-4.1105,-4.1131,-4.1176,-4.1215,-4.128,-4.1283,-4.1314,-4.1334,-4.1362,-4.1396,-4.136,-4.1362,-4.1364,-4.1454,-4.1451,-4.1457,-4.1403,-4.1405,-4.1406,-4.1449,0,-4.081,-4.0898,-4.0933,-4.1004,-4.1049,-4.1075,-4.1116,-4.1159,-4.1188,-4.1229,-4.126,-4.1306,-4.1306,-4.1325,-4.1354,-4.1386,-4.1414,-4.1384,-4.1437,-4.1439,-4.1423,-4.1466,-4.1462,-4.1501,-4.1456,-4.1457,-4.1458,0,-4.0868,-4.0918,-4.0994,-4.1054,-4.1075,-4.1111,-4.1165,-4.1205,-4.1253,-4.1272,-4.1308,-4.1328,-4.1376,-4.1366,-4.1432,-4.1411,-4.1435,-4.1454,-4.1456,-4.1461,-4.1448,-4.1469,-4.1515,-4.152,-4.1467,-4.1467,-4.1466,0,-4.0874,-4.0959,-4.1016,-4.1042,-4.1114,-4.1139,-4.1169,-4.1218,-4.1249,-4.1295,-4.1315,-4.1365,-4.1391,-4.1429,-4.146,-4.1451,-4.1523,-4.1516,-4.1538,-4.1537,-4.155,-4.1548,-4.1598,-4.1568,-4.1568,-4.1568,-4.1568,0,-4.0914,-4.0959,-4.102,-4.1054,-4.1105,-4.1144,-4.1192,-4.1224,-4.1267,-4.1307,-4.1331,-4.1367,-4.1408,-4.1449,-4.1474,-4.1524,-4.1536,-4.1551,-4.1556,-4.1548,-4.1545,-4.1562,-4.156,-4.157,-4.157,-4.1569,-4.1569,0,-4.0928,-4.097,-4.1034,-4.1098,-4.1115,-4.115,-4.1203,-4.1237,-4.1268,-4.1318,-4.1331,-4.1379,-4.1428,-4.1465,-4.1527,-4.1544,-4.1597,-4.1604,-4.1581,-4.1584,-4.1603,-4.1601,-4.1664,-4.1674,-4.1639,-4.164,-4.164,0,-4.095,-4.0986,-4.1055,-4.1085,-4.1116,-4.1163,-4.1196,-4.1236,-4.1269,-4.1328,-4.1354,-4.1406,-4.1449,-4.1526,-4.1564,-4.1612,-4.1619,-4.1638,-4.1626,-4.1616,-4.1618,-4.1615,-4.1618,-4.1639,-4.1639,-4.1639,-4.164,0,-4.0984,-4.1004,-4.1052,-4.1108,-4.1147,-4.1192,-4.1237,-4.1259,-4.1306,-4.1341,-4.1394,-4.1428,-4.1494,-4.1544,-4.1596,-4.1625,-4.1639,-4.1644,-4.1651,-4.1641,-4.1626,-4.1633,-4.1584,-4.1641,-4.1641,-4.1641,-4.1641,-4.1641,-4.1002,-4.1035,-4.1089,-4.1142,-4.1181,-4.1223,-4.1257,-4.1295,-4.134,-4.1399,-4.1419,-4.1472,-4.152,-4.1593,-4.1622,-4.1663,-4.1662,-4.1673,-4.1676,-4.1677,-4.1676,-4.1622,-4.1673,-4.1673,-4.1673,-4.1673,-4.1673,0,-4.1036,-4.1073,-4.1121,-4.1185,-4.1226,-4.1241,-4.1291,-4.1324,-4.1372,-4.1417,-4.146,-4.152,-4.1569,-4.1613,-4.1663,-4.1688,-4.1695,-4.1699,-4.1697,-4.1703,-4.1674,-4.1662,-4.1692,-4.1692,-4.1692,-4.1692,-4.1692,-4.1692,-4.1058,-4.1115,-4.1142,-4.1218,-4.1254,-4.1309,-4.1337,-4.1375,-4.1411,-4.1478,-4.152,-4.155,-4.1593,-4.1648,-4.1693,-4.1705,-4.1721,-4.1723,-4.1736,-4.1708,-4.1705,-4.1703,-4.1691,-4.1727,-4.1727,-4.1761,-4.1761,-4.1761]},{"header":{"parameterUnit":"m.s-1","parameterCategory":1,"la1":30.2991,"la2":30.254,"lo1":-89.0895,"lo2":-89.0444,"dx":0.0017,"dy":0.0017,"nx":28,"ny":28,"refTime":"2022-12-14T09:00:00:Z","depth":0,"parameterNumber":3,"parameterNumberName":"V-component_of_WINDS"},"data":[0,0,0,0,0,0,0,0,0,0,0,0,0,0,0,0,0,0,0,0,0,0,0,0,0,0,0,0,0,0,0,0,0,0,0,0,0,0,0,0,0,0,0,0,0,0,0,0,0,0,0,0,0,0,0,0,0,0,6.6476,6.6478,0,6.6672,6.6674,6.6676,6.6684,6.6681,6.6679,6.6677,6.6881,6.6888,6.6896,0,0,0,0,0,0,0,0,0,0,0,0,0,6.611,6.6116,6.6476,6.6478,6.6481,6.6672,6.6674,6.6677,6.6684,6.6681,6.6678,6.6676,6.6878,6.6887,6.6896,0,0,0,0,0,0,0,0,0,0,0,0,0,6.6284,6.6119,6.6475,6.6507,6.6512,6.6671,6.6674,6.6678,6.6685,6.6681,6.6678,6.6674,6.6875,6.6886,6.6898,6.7039,0,0,6.6933,6.6937,0,0,0,0,0,0,0,0,6.6274,6.6297,6.65,6.6505,6.6511,6.665,6.662,6.6799,6.6686,6.6619,6.6677,6.6673,6.6807,6.6824,6.6868,6.7049,6.7058,6.6934,6.694,6.6945,6.6949,0,0,0,0,0,0,0,6.6262,6.6289,6.6553,6.6503,6.651,6.6512,6.6533,6.6654,6.6731,6.6625,6.6626,6.6649,6.6809,6.6857,6.6873,6.7061,6.6933,6.6943,6.695,6.6955,6.7368,6.7372,0,0,0,0,0,0,6.6243,6.6279,6.6547,6.6559,6.6381,6.6522,6.6545,6.6609,6.6729,6.6744,6.6651,6.6648,6.684,6.686,6.688,6.7056,6.6945,6.6956,6.6963,6.7364,6.7369,6.7374,0,0,0,0,0,0,6.6235,6.6267,6.6539,6.6419,6.6454,6.6532,6.6603,6.6614,6.6663,6.6749,6.6763,6.6687,6.6838,6.6864,6.7,6.7063,6.6961,6.6972,6.736,6.7366,6.7372,6.7406,0,0,0,0,0,0,6.6225,6.6264,6.6318,6.642,6.6461,6.6655,6.6607,6.6621,6.6682,6.668,6.6786,6.68,6.6837,6.6983,6.7011,6.7077,6.6981,6.7354,6.7362,6.737,6.74,6.7413,6.7424,0,0,0,0,0,6.6211,6.632,6.6321,6.6353,6.653,6.6658,6.6681,6.672,6.6687,6.6743,6.6798,6.6797,6.7051,6.6996,6.7029,6.7099,6.7351,6.736,6.7369,6.7394,6.741,6.7424,0,0,0,0,0,0,6.6225,6.6334,6.6336,6.6481,6.656,6.6659,6.6731,6.6736,6.6827,6.6821,6.6866,6.689,6.7025,6.7075,6.7013,6.7243,6.7197,6.7213,6.7205,6.7221,6.7233,6.7219,6.699,0,0,0,0,0,6.6244,6.6338,6.643,6.6549,6.6588,6.6652,6.671,6.6733,6.6817,6.6851,6.6917,6.6999,6.7098,6.7162,6.7257,6.7406,6.7431,6.747,6.7482,6.7492,6.7506,6.759,6.7609,6.7404,6.7404,6.7404,0,0,6.6286,6.6357,6.6415,6.6553,6.6617,6.6715,6.6681,6.6786,6.6859,6.6867,6.7,6.705,6.7146,6.7289,6.7355,6.7335,6.7567,6.7503,6.751,6.752,6.7601,6.7621,6.7638,6.741,6.7409,6.7408,0,0,6.6413,6.6475,6.6582,6.6647,6.6744,6.6786,6.6811,6.691,6.6944,6.7077,6.7085,6.7173,6.7342,6.7409,6.7466,6.7618,6.762,6.7647,6.7711,6.7792,6.7809,6.7823,6.7879,6.7898,6.7661,6.7661,6.7661,0,6.6453,6.66,6.6637,6.6742,6.6804,6.6814,6.6923,6.6984,6.7108,6.7151,6.7125,6.7337,6.7402,6.7562,6.7599,6.7643,6.7675,6.7636,6.7803,6.7818,6.7832,6.7886,6.7907,6.7663,6.7663,6.7663,6.7663,0,6.6645,6.6747,6.6822,6.694,6.701,6.7116,6.7171,6.7237,6.7253,6.7298,6.7434,6.7511,6.7623,6.7662,6.768,6.7825,6.781,6.7793,6.7749,6.7854,6.7905,6.7926,6.7667,6.7666,6.7666,6.7665,0,0,6.6788,6.6924,6.6951,6.7006,6.7113,6.7193,6.73,6.7408,6.7465,6.7549,6.7642,6.7783,6.7769,6.7833,6.7858,6.7929,6.8046,6.7904,6.7907,6.7929,6.8213,6.8226,6.825,6.8047,6.8051,6.8055,6.8206,0,6.6928,6.7118,6.7155,6.7321,6.7416,6.7427,6.7521,6.7597,6.7642,6.773,6.7779,6.7879,6.7851,6.789,6.7961,6.8017,6.8104,6.8006,6.8136,6.814,6.8114,6.8276,6.8291,6.843,6.8226,6.8229,6.8232,0,6.7117,6.7206,6.7381,6.7476,6.7517,6.7601,6.7703,6.7787,6.7874,6.7901,6.7972,6.7989,6.8102,6.8051,6.8208,6.8141,6.8195,6.8231,6.8237,6.8253,6.8194,6.8298,6.8475,6.8496,6.8263,6.8261,6.8259,0,6.7206,6.7369,6.7495,6.7541,6.7654,6.7713,6.7763,6.7846,6.7909,6.7999,6.804,6.8142,6.8198,6.8277,6.8321,6.8279,6.8476,6.8427,6.8503,6.8503,6.8546,6.8543,6.8736,6.8578,6.8578,6.8577,6.8577,0,6.736,6.7468,6.7537,6.7615,6.7735,6.7776,6.7895,6.7944,6.8018,6.8107,6.8122,6.8205,6.8257,6.8348,6.8383,6.8509,6.8534,6.8561,6.8569,6.8561,6.8558,6.8599,6.8591,6.8583,6.8582,6.858,6.8579,0,6.7481,6.7531,6.767,6.7765,6.7792,6.7877,6.7959,6.8036,6.8079,6.8191,6.822,6.8289,6.8397,6.8448,6.8581,6.8605,6.8749,6.875,6.8719,6.8723,6.8797,6.879,6.9025,6.9058,6.8875,6.8877,6.8878,0,6.7577,6.766,6.7764,6.7824,6.7875,6.7971,6.8035,6.8078,6.8144,6.8249,6.8314,6.8422,6.8511,6.8682,6.8745,6.8847,6.8853,6.8928,6.8868,6.8857,6.8856,6.8852,6.8861,6.8939,6.8941,6.8942,6.8944,0,6.7743,6.7764,6.7855,6.7955,6.8031,6.8112,6.8192,6.824,6.8295,6.8369,6.8479,6.8548,6.8684,6.8791,6.8898,6.895,6.8958,6.8961,6.8985,6.8978,6.8958,6.8972,6.8751,6.8956,6.8955,6.8954,6.8954,6.8953,6.7856,6.7931,6.8016,6.8117,6.8181,6.8255,6.8332,6.8385,6.8476,6.859,6.8609,6.8727,6.8812,6.8956,6.9012,6.9105,6.9088,6.9121,6.913,6.9138,6.9143,6.8941,6.9124,6.9123,6.9123,6.9123,6.9123,0,6.8025,6.808,6.8172,6.8283,6.8363,6.836,6.8448,6.8515,6.8618,6.8696,6.8783,6.8909,6.9013,6.9084,6.919,6.9251,6.9257,6.9277,6.9275,6.9287,6.9151,6.9121,6.9271,6.9271,6.9271,6.9271,6.9271,6.9271,6.8123,6.8249,6.8279,6.8438,6.8492,6.8606,6.8657,6.8726,6.8788,6.8928,6.9015,6.9059,6.9135,6.9246,6.9342,6.936,6.94,6.9421,6.9439,6.9312,6.9296,6.9282,6.9254,6.9429,6.9429,6.9568,6.9569,6.957]}]]